Location: Melbourne
(37.8170°S, 144.9670°E)
Time: 04:28:50
(UTC+10:00)

CZ-3 R/B - Visible Passes

Search period start: 20 August 2017 00:00
Search period end: 30 August 2017 00:00
Orbit: 256 x 10490 km, 28.4° (Epoch: 18 August)

Date Brightness Start Highest point End Pass type
(mag) Time Alt. Az. Time Alt. Az. Time Alt. Az.
20 Aug 4.7 00:32:38 10° W 02:03:36 51° NE 02:13:49 10° ENE visible
20 Aug 4.5 05:34:54 18° W 05:42:09 21° WNW 05:50:30 10° NNW visible
20 Aug 6.5 17:16:54 10° N 18:00:49 33° ENE 18:56:58 15° E visible
20 Aug 6.0 21:02:15 10° NW 22:21:29 69° NNE 22:28:15 68° NE visible
21 Aug 4.6 01:24:08 10° W 02:42:26 57° N 02:54:28 10° NE visible
21 Aug 4.8 06:17:19 10° W 06:21:44 11° WNW 06:25:09 10° NW visible
21 Aug 6.4 17:55:37 10° NNW 18:44:38 42° NE 19:36:11 24° E visible
21 Aug 5.7 21:46:19 10° WNW 23:49:57 14° E 23:51:17 10° E visible
22 Aug 4.6 02:16:52 10° W 03:21:14 53° NNW 03:34:41 10° NE visible
22 Aug 6.3 18:35:29 10° NNW 19:29:48 52° NE 20:15:20 33° E visible
22 Aug 5.5 22:31:40 10° WNW 00:28:44 23° ENE 00:33:00 10° ENE visible
23 Aug 4.7 03:10:15 10° W 04:01:02 42° NW 04:14:24 10° NNE visible
23 Aug 6.1 19:16:15 10° NW 20:16:31 60° NE 20:54:25 43° E visible
23 Aug 5.2 23:18:28 10° W 01:07:28 33° ENE 01:14:17 10° ENE visible
24 Aug 4.8 04:38:45 30° WNW 04:41:31 31° NW 04:53:26 10° N visible
24 Aug 6.0 19:57:48 10° NW 21:04:47 67° NNE 21:33:25 54° ENE visible
25 Aug 5.0 00:06:52 10° W 01:46:13 42° NE 01:55:07 10° ENE visible
25 Aug 4.7 05:17:29 20° WNW 05:21:15 20° WNW 05:31:15 10° NNW visible
25 Aug 6.5 16:55:33 10° N 17:33:28 35° NE 18:41:02 10° ESE visible
25 Aug 6.0 20:40:13 10° WNW 21:54:14 71° NNE 22:12:19 64° ENE visible
26 Aug 4.8 00:56:53 10° W 02:24:55 48° NNE 02:35:31 10° NE visible
26 Aug 5.0 05:56:56 10° WNW 06:00:35 10° WNW 06:03:36 10° WNW visible
26 Aug 6.5 17:34:20 10° NNW 18:16:31 45° NE 19:19:54 18° E visible
26 Aug 5.9 21:23:34 10° WNW 22:43:59 74° N 22:51:08 72° NNE visible
27 Aug 4.8 01:48:24 10° W 03:03:36 47° N 03:15:26 10° NNE visible
27 Aug 6.3 18:14:03 10° NNW 19:01:00 54° NE 19:58:35 27° E visible
27 Aug 5.7 22:07:59 10° WNW 00:11:00 16° ENE 00:13:05 10° ENE visible
28 Aug 4.8 02:41:13 10° WSW 03:42:16 40° NW 03:54:47 10° NNE visible
28 Aug 6.2 18:54:31 10° NW 19:47:12 62° NNE 20:37:12 36° E visible
28 Aug 5.4 22:53:36 10° W 00:49:38 24° ENE 00:54:14 10° ENE visible
29 Aug 5.0 03:35:18 10° WSW 04:20:53 30° NW 04:33:20 10° N visible
29 Aug 6.1 19:35:40 10° NW 20:35:11 69° NNE 21:15:43 46° E visible
